Pit Above Pit 1 Powerhouse [ USA-CAL ]

Edit Gauge

Current Conditions

Reading of "n/a" = frozen gauge or gauge error.
Reading Trend Type Updated
too low 0.0 r.c./hr Status 01h44m
592 cfs 43 cfs/hr Flow 01h44m

Station Description

AW Gauge ID: 48900
Source: dream
Station: 035
Enabled yes
AW thanks Chris Shackleton and Dreamflows for this data. Dreamflows data should only be analyzed in the context of the Dreamflows site. Data is often calculated and/or approximated. Please see Chris's site for a complete description of how this data should and can be interpreted. Source Gauge's Page

Information

Flow

Gauge History

Times listed in GMT 24h, ET and PT hours provided for convenience Graphs in GMT. Readings of "n/a" constitute a frozen gauge or gauge error.
Reading Updated (GMT) Eastern Pacific Comment
592.00 11/19/2017 19:58:56 Nov 19 02:58 pm Nov 19 11:58 am
549.00 11/19/2017 18:59:12 Nov 19 01:59 pm Nov 19 10:59 am
591.00 11/19/2017 17:59:28 Nov 19 12:59 pm Nov 19 9:59 am
584.00 11/19/2017 16:59:44 Nov 19 11:59 am Nov 19 8:59 am
593.00 11/19/2017 16:00:00 Nov 19 11:00 am Nov 19 8:00 am
590.00 11/19/2017 14:58:08 Nov 19 09:58 am Nov 19 6:58 am
591.00 11/19/2017 13:58:24 Nov 19 08:58 am Nov 19 5:58 am
585.00 11/19/2017 12:58:40 Nov 19 07:58 am Nov 19 4:58 am
586.00 11/19/2017 11:58:56 Nov 19 06:58 am Nov 19 3:58 am
593.00 11/19/2017 09:59:28 Nov 19 04:59 am Nov 19 1:59 am
585.00 11/19/2017 08:59:44 Nov 19 03:59 am Nov 19 12:59 am
595.00 11/19/2017 08:00:00 Nov 19 03:00 am Nov 19 12:00 am
596.00 11/19/2017 04:58:40 Nov 18 11:58 pm Nov 18 8:58 pm
587.00 11/19/2017 03:58:56 Nov 18 10:58 pm Nov 18 7:58 pm
632.00 11/19/2017 02:59:12 Nov 18 09:59 pm Nov 18 6:59 pm
608.00 11/19/2017 00:59:44 Nov 18 07:59 pm Nov 18 4:59 pm
618.00 11/18/2017 22:58:08 Nov 18 05:58 pm Nov 18 2:58 pm
676.00 11/18/2017 21:58:24 Nov 18 04:58 pm Nov 18 1:58 pm
650.00 11/18/2017 20:58:40 Nov 18 03:58 pm Nov 18 12:58 pm
698.00 11/18/2017 19:58:56 Nov 18 02:58 pm Nov 18 11:58 am
723.00 11/18/2017 18:59:12 Nov 18 01:59 pm Nov 18 10:59 am
718.00 11/18/2017 17:59:28 Nov 18 12:59 pm Nov 18 9:59 am
776.00 11/18/2017 16:59:44 Nov 18 11:59 am Nov 18 8:59 am
829.00 11/18/2017 16:00:00 Nov 18 11:00 am Nov 18 8:00 am
900.00 11/18/2017 14:58:08 Nov 18 09:58 am Nov 18 6:58 am
955.00 11/18/2017 13:58:24 Nov 18 08:58 am Nov 18 5:58 am
997.00 11/18/2017 12:58:40 Nov 18 07:58 am Nov 18 4:58 am
1062.00 11/18/2017 11:58:56 Nov 18 06:58 am Nov 18 3:58 am
1095.00 11/18/2017 03:58:56 Nov 17 10:58 pm Nov 17 7:58 pm
982.00 11/18/2017 01:59:28 Nov 17 08:59 pm Nov 17 5:59 pm
798.00 11/18/2017 00:00:00 Nov 17 07:00 pm Nov 17 4:00 pm
742.00 11/17/2017 22:58:08 Nov 17 05:58 pm Nov 17 2:58 pm
696.00 11/17/2017 21:58:24 Nov 17 04:58 pm Nov 17 1:58 pm
701.00 11/17/2017 20:58:40 Nov 17 03:58 pm Nov 17 12:58 pm
751.00 11/17/2017 19:58:56 Nov 17 02:58 pm Nov 17 11:58 am
699.00 11/17/2017 18:59:12 Nov 17 01:59 pm Nov 17 10:59 am
753.00 11/17/2017 17:59:28 Nov 17 12:59 pm Nov 17 9:59 am
760.00 11/17/2017 16:59:44 Nov 17 11:59 am Nov 17 8:59 am
806.00 11/17/2017 16:00:00 Nov 17 11:00 am Nov 17 8:00 am
861.00 11/17/2017 14:58:08 Nov 17 09:58 am Nov 17 6:58 am
914.00 11/17/2017 13:58:24 Nov 17 08:58 am Nov 17 5:58 am
980.00 11/17/2017 12:58:40 Nov 17 07:58 am Nov 17 4:58 am
973.00 11/17/2017 11:58:56 Nov 17 06:58 am Nov 17 3:58 am
980.00 11/17/2017 10:59:12 Nov 17 05:59 am Nov 17 2:59 am
977.00 11/17/2017 09:59:28 Nov 17 04:59 am Nov 17 1:59 am
977.00 11/17/2017 08:59:44 Nov 17 03:59 am Nov 17 12:59 am
805.00 11/17/2017 02:59:12 Nov 16 09:59 pm Nov 16 6:59 pm
692.00 11/17/2017 01:59:28 Nov 16 08:59 pm Nov 16 5:59 pm
554.00 11/17/2017 00:00:00 Nov 16 07:00 pm Nov 16 4:00 pm
548.00 11/16/2017 22:58:08 Nov 16 05:58 pm Nov 16 2:58 pm
565.00 11/16/2017 21:58:24 Nov 16 04:58 pm Nov 16 1:58 pm
566.00 11/16/2017 20:58:40 Nov 16 03:58 pm Nov 16 12:58 pm
572.00 11/16/2017 19:58:56 Nov 16 02:58 pm Nov 16 11:58 am
595.00 11/16/2017 18:59:12 Nov 16 01:59 pm Nov 16 10:59 am
591.00 11/16/2017 17:59:28 Nov 16 12:59 pm Nov 16 9:59 am
591.00 11/16/2017 16:59:44 Nov 16 11:59 am Nov 16 8:59 am
664.00 11/16/2017 16:00:00 Nov 16 11:00 am Nov 16 8:00 am
655.00 11/16/2017 14:58:08 Nov 16 09:58 am Nov 16 6:58 am
694.00 11/16/2017 13:58:24 Nov 16 08:58 am Nov 16 5:58 am
690.00 11/16/2017 12:58:40 Nov 16 07:58 am Nov 16 4:58 am
665.00 11/16/2017 11:58:56 Nov 16 06:58 am Nov 16 3:58 am
605.00 11/16/2017 10:59:12 Nov 16 05:59 am Nov 16 2:59 am
569.00 11/16/2017 09:59:28 Nov 16 04:59 am Nov 16 1:59 am
524.00 11/16/2017 08:59:44 Nov 16 03:59 am Nov 16 12:59 am
518.00 11/16/2017 08:00:00 Nov 16 03:00 am Nov 16 12:00 am
473.00 11/16/2017 04:58:40 Nov 15 11:58 pm Nov 15 8:58 pm
481.00 11/16/2017 03:58:56 Nov 15 10:58 pm Nov 15 7:58 pm
479.00 11/16/2017 02:59:12 Nov 15 09:59 pm Nov 15 6:59 pm
483.00 11/16/2017 01:59:28 Nov 15 08:59 pm Nov 15 5:59 pm
425.00 11/16/2017 00:00:00 Nov 15 07:00 pm Nov 15 4:00 pm
419.00 11/15/2017 22:58:08 Nov 15 05:58 pm Nov 15 2:58 pm
473.00 11/15/2017 21:58:24 Nov 15 04:58 pm Nov 15 1:58 pm
434.00 11/15/2017 20:58:40 Nov 15 03:58 pm Nov 15 12:58 pm
434.00 11/15/2017 19:58:56 Nov 15 02:58 pm Nov 15 11:58 am
431.00 11/15/2017 18:59:12 Nov 15 01:59 pm Nov 15 10:59 am
470.00 11/15/2017 17:59:28 Nov 15 12:59 pm Nov 15 9:59 am
433.00 11/15/2017 16:59:44 Nov 15 11:59 am Nov 15 8:59 am
425.00 11/15/2017 16:00:00 Nov 15 11:00 am Nov 15 8:00 am
432.00 11/15/2017 14:58:08 Nov 15 09:58 am Nov 15 6:58 am
457.00 11/15/2017 13:58:24 Nov 15 08:58 am Nov 15 5:58 am
470.00 11/15/2017 12:58:40 Nov 15 07:58 am Nov 15 4:58 am
454.00 11/15/2017 11:58:56 Nov 15 06:58 am Nov 15 3:58 am
421.00 11/15/2017 10:59:12 Nov 15 05:59 am Nov 15 2:59 am
419.00 11/15/2017 09:59:28 Nov 15 04:59 am Nov 15 1:59 am
445.00 11/15/2017 08:59:44 Nov 15 03:59 am Nov 15 12:59 am
431.00 11/15/2017 04:58:40 Nov 14 11:58 pm Nov 14 8:58 pm
457.00 11/15/2017 03:58:56 Nov 14 10:58 pm Nov 14 7:58 pm
418.00 11/15/2017 02:59:12 Nov 14 09:59 pm Nov 14 6:59 pm
460.00 11/15/2017 01:59:28 Nov 14 08:59 pm Nov 14 5:59 pm
446.00 11/15/2017 00:00:00 Nov 14 07:00 pm Nov 14 4:00 pm
444.00 11/14/2017 22:58:08 Nov 14 05:58 pm Nov 14 2:58 pm
456.00 11/14/2017 21:58:24 Nov 14 04:58 pm Nov 14 1:58 pm
438.00 11/14/2017 20:58:40 Nov 14 03:58 pm Nov 14 12:58 pm
447.00 11/14/2017 19:58:56 Nov 14 02:58 pm Nov 14 11:58 am
452.00 11/14/2017 18:59:12 Nov 14 01:59 pm Nov 14 10:59 am
457.00 11/14/2017 17:59:28 Nov 14 12:59 pm Nov 14 9:59 am
428.00 11/14/2017 16:59:44 Nov 14 11:59 am Nov 14 8:59 am
456.00 11/14/2017 16:00:00 Nov 14 11:00 am Nov 14 8:00 am
464.00 11/14/2017 14:58:08 Nov 14 09:58 am Nov 14 6:58 am
470.00 11/14/2017 13:58:24 Nov 14 08:58 am Nov 14 5:58 am
432.00 11/14/2017 12:58:40 Nov 14 07:58 am Nov 14 4:58 am
436.00 11/14/2017 11:58:56 Nov 14 06:58 am Nov 14 3:58 am
450.00 11/14/2017 10:59:12 Nov 14 05:59 am Nov 14 2:59 am
433.00 11/14/2017 08:59:44 Nov 14 03:59 am Nov 14 12:59 am
451.00 11/14/2017 08:00:00 Nov 14 03:00 am Nov 14 12:00 am
449.00 11/14/2017 04:58:40 Nov 13 11:58 pm Nov 13 8:58 pm
450.00 11/14/2017 03:58:56 Nov 13 10:58 pm Nov 13 7:58 pm
451.00 11/14/2017 02:59:12 Nov 13 09:59 pm Nov 13 6:59 pm
431.00 11/14/2017 01:59:28 Nov 13 08:59 pm Nov 13 5:59 pm
433.00 11/14/2017 00:00:00 Nov 13 07:00 pm Nov 13 4:00 pm
459.00 11/13/2017 22:58:08 Nov 13 05:58 pm Nov 13 2:58 pm
437.00 11/13/2017 21:58:24 Nov 13 04:58 pm Nov 13 1:58 pm
438.00 11/13/2017 20:58:40 Nov 13 03:58 pm Nov 13 12:58 pm
435.00 11/13/2017 19:58:56 Nov 13 02:58 pm Nov 13 11:58 am
468.00 11/13/2017 17:59:28 Nov 13 12:59 pm Nov 13 9:59 am
435.00 11/13/2017 16:59:44 Nov 13 11:59 am Nov 13 8:59 am
466.00 11/13/2017 16:00:00 Nov 13 11:00 am Nov 13 8:00 am
455.00 11/13/2017 14:58:08 Nov 13 09:58 am Nov 13 6:58 am
449.00 11/13/2017 13:58:24 Nov 13 08:58 am Nov 13 5:58 am
450.00 11/13/2017 12:58:40 Nov 13 07:58 am Nov 13 4:58 am
450.00 11/13/2017 11:58:56 Nov 13 06:58 am Nov 13 3:58 am
451.00 11/13/2017 09:59:28 Nov 13 04:59 am Nov 13 1:59 am
449.00 11/13/2017 08:59:44 Nov 13 03:59 am Nov 13 12:59 am
448.00 11/13/2017 08:00:00 Nov 13 03:00 am Nov 13 12:00 am
435.00 11/13/2017 04:58:40 Nov 12 11:58 pm Nov 12 8:58 pm
428.00 11/13/2017 03:58:56 Nov 12 10:58 pm Nov 12 7:58 pm
453.00 11/13/2017 02:59:12 Nov 12 09:59 pm Nov 12 6:59 pm
434.00 11/13/2017 01:59:28 Nov 12 08:59 pm Nov 12 5:59 pm
445.00 11/13/2017 00:00:00 Nov 12 07:00 pm Nov 12 4:00 pm
486.00 11/12/2017 22:58:08 Nov 12 05:58 pm Nov 12 2:58 pm
459.00 11/12/2017 21:58:24 Nov 12 04:58 pm Nov 12 1:58 pm
414.00 11/12/2017 20:58:40 Nov 12 03:58 pm Nov 12 12:58 pm
427.00 11/12/2017 19:58:56 Nov 12 02:58 pm Nov 12 11:58 am
441.00 11/12/2017 16:59:44 Nov 12 11:59 am Nov 12 8:59 am
441.00 11/12/2017 16:00:00 Nov 12 11:00 am Nov 12 8:00 am
441.00 11/12/2017 14:58:08 Nov 12 09:58 am Nov 12 6:58 am
437.00 11/12/2017 13:58:24 Nov 12 08:58 am Nov 12 5:58 am
443.00 11/12/2017 12:58:40 Nov 12 07:58 am Nov 12 4:58 am
431.00 11/12/2017 11:58:56 Nov 12 06:58 am Nov 12 3:58 am
439.00 11/12/2017 09:59:28 Nov 12 04:59 am Nov 12 1:59 am
433.00 11/12/2017 08:59:44 Nov 12 03:59 am Nov 12 12:59 am
435.00 11/12/2017 04:58:40 Nov 11 11:58 pm Nov 11 8:58 pm
431.00 11/12/2017 03:58:56 Nov 11 10:58 pm Nov 11 7:58 pm
438.00 11/12/2017 02:59:12 Nov 11 09:59 pm Nov 11 6:59 pm
435.00 11/12/2017 00:59:44 Nov 11 07:59 pm Nov 11 4:59 pm
439.00 11/12/2017 00:00:00 Nov 11 07:00 pm Nov 11 4:00 pm
445.00 11/11/2017 22:58:08 Nov 11 05:58 pm Nov 11 2:58 pm
442.00 11/11/2017 21:58:24 Nov 11 04:58 pm Nov 11 1:58 pm
442.00 11/11/2017 20:58:40 Nov 11 03:58 pm Nov 11 12:58 pm
433.00 11/11/2017 19:58:56 Nov 11 02:58 pm Nov 11 11:58 am
435.00 11/11/2017 18:59:12 Nov 11 01:59 pm Nov 11 10:59 am
427.00 11/11/2017 17:59:28 Nov 11 12:59 pm Nov 11 9:59 am
431.00 11/11/2017 16:59:44 Nov 11 11:59 am Nov 11 8:59 am
440.00 11/11/2017 16:00:00 Nov 11 11:00 am Nov 11 8:00 am
438.00 11/11/2017 14:58:08 Nov 11 09:58 am Nov 11 6:58 am
429.00 11/11/2017 13:58:24 Nov 11 08:58 am Nov 11 5:58 am
436.00 11/11/2017 12:58:40 Nov 11 07:58 am Nov 11 4:58 am
430.00 11/11/2017 11:58:56 Nov 11 06:58 am Nov 11 3:58 am
440.00 11/11/2017 10:59:12 Nov 11 05:59 am Nov 11 2:59 am
449.00 11/11/2017 09:59:28 Nov 11 04:59 am Nov 11 1:59 am
436.00 11/11/2017 08:59:44 Nov 11 03:59 am Nov 11 12:59 am
431.00 11/11/2017 04:58:40 Nov 10 11:58 pm Nov 10 8:58 pm
428.00 11/11/2017 03:58:56 Nov 10 10:58 pm Nov 10 7:58 pm
433.00 11/11/2017 02:59:12 Nov 10 09:59 pm Nov 10 6:59 pm
437.00 11/11/2017 01:59:28 Nov 10 08:59 pm Nov 10 5:59 pm
422.00 11/11/2017 00:59:44 Nov 10 07:59 pm Nov 10 4:59 pm
446.00 11/11/2017 00:00:00 Nov 10 07:00 pm Nov 10 4:00 pm
440.00 11/10/2017 22:58:08 Nov 10 05:58 pm Nov 10 2:58 pm
414.00 11/10/2017 21:58:24 Nov 10 04:58 pm Nov 10 1:58 pm
428.00 11/10/2017 20:58:40 Nov 10 03:58 pm Nov 10 12:58 pm
447.00 11/10/2017 19:58:56 Nov 10 02:58 pm Nov 10 11:58 am
432.00 11/10/2017 18:59:12 Nov 10 01:59 pm Nov 10 10:59 am
433.00 11/10/2017 17:59:28 Nov 10 12:59 pm Nov 10 9:59 am
448.00 11/10/2017 16:59:44 Nov 10 11:59 am Nov 10 8:59 am
397.00 11/10/2017 16:00:00 Nov 10 11:00 am Nov 10 8:00 am
423.00 11/10/2017 14:58:08 Nov 10 09:58 am Nov 10 6:58 am
456.00 11/10/2017 13:58:24 Nov 10 08:58 am Nov 10 5:58 am
442.00 11/10/2017 12:58:40 Nov 10 07:58 am Nov 10 4:58 am
445.00 11/10/2017 11:58:56 Nov 10 06:58 am Nov 10 3:58 am
439.00 11/10/2017 10:59:12 Nov 10 05:59 am Nov 10 2:59 am
428.00 11/10/2017 09:59:28 Nov 10 04:59 am Nov 10 1:59 am
409.00 11/10/2017 08:59:44 Nov 10 03:59 am Nov 10 12:59 am
459.00 11/10/2017 04:58:40 Nov 9 11:58 pm Nov 9 8:58 pm
446.00 11/10/2017 03:58:56 Nov 9 10:58 pm Nov 9 7:58 pm
450.00 11/10/2017 02:59:12 Nov 9 09:59 pm Nov 9 6:59 pm
449.00 11/10/2017 01:59:28 Nov 9 08:59 pm Nov 9 5:59 pm
442.00 11/10/2017 00:59:44 Nov 9 07:59 pm Nov 9 4:59 pm
439.00 11/10/2017 00:00:00 Nov 9 07:00 pm Nov 9 4:00 pm
455.00 11/09/2017 22:58:08 Nov 9 05:58 pm Nov 9 2:58 pm
446.00 11/09/2017 21:58:24 Nov 9 04:58 pm Nov 9 1:58 pm
455.00 11/09/2017 20:58:40 Nov 9 03:58 pm Nov 9 12:58 pm
437.00 11/09/2017 19:58:56 Nov 9 02:58 pm Nov 9 11:58 am
474.00 11/09/2017 18:59:12 Nov 9 01:59 pm Nov 9 10:59 am
456.00 11/09/2017 17:59:28 Nov 9 12:59 pm Nov 9 9:59 am
452.00 11/09/2017 16:59:44 Nov 9 11:59 am Nov 9 8:59 am
423.00 11/09/2017 16:00:00 Nov 9 11:00 am Nov 9 8:00 am
476.00 11/09/2017 14:58:08 Nov 9 09:58 am Nov 9 6:58 am
443.00 11/09/2017 13:58:24 Nov 9 08:58 am Nov 9 5:58 am
458.00 11/09/2017 12:58:40 Nov 9 07:58 am Nov 9 4:58 am
447.00 11/09/2017 11:58:56 Nov 9 06:58 am Nov 9 3:58 am
454.00 11/09/2017 10:59:12 Nov 9 05:59 am Nov 9 2:59 am
452.00 11/09/2017 09:59:28 Nov 9 04:59 am Nov 9 1:59 am
447.00 11/09/2017 08:00:00 Nov 9 03:00 am Nov 9 12:00 am
415.00 11/09/2017 04:58:40 Nov 8 11:58 pm Nov 8 8:58 pm
468.00 11/09/2017 03:58:56 Nov 8 10:58 pm Nov 8 7:58 pm
422.00 11/09/2017 02:59:12 Nov 8 09:59 pm Nov 8 6:59 pm
467.00 11/09/2017 01:59:28 Nov 8 08:59 pm Nov 8 5:59 pm
414.00 11/09/2017 00:59:44 Nov 8 07:59 pm Nov 8 4:59 pm
461.00 11/09/2017 00:00:00 Nov 8 07:00 pm Nov 8 4:00 pm
450.00 11/08/2017 22:58:08 Nov 8 05:58 pm Nov 8 2:58 pm
445.00 11/08/2017 21:58:24 Nov 8 04:58 pm Nov 8 1:58 pm
455.00 11/08/2017 20:58:40 Nov 8 03:58 pm Nov 8 12:58 pm
429.00 11/08/2017 19:58:56 Nov 8 02:58 pm Nov 8 11:58 am
395.00 11/08/2017 18:59:12 Nov 8 01:59 pm Nov 8 10:59 am
438.00 11/08/2017 17:59:28 Nov 8 12:59 pm Nov 8 9:59 am
400.00 11/08/2017 16:59:44 Nov 8 11:59 am Nov 8 8:59 am
446.00 11/08/2017 16:00:00 Nov 8 11:00 am Nov 8 8:00 am
431.00 11/08/2017 14:58:08 Nov 8 09:58 am Nov 8 6:58 am
450.00 11/08/2017 13:58:24 Nov 8 08:58 am Nov 8 5:58 am
451.00 11/08/2017 12:58:40 Nov 8 07:58 am Nov 8 4:58 am
443.00 11/08/2017 11:58:56 Nov 8 06:58 am Nov 8 3:58 am
427.00 11/08/2017 10:59:12 Nov 8 05:59 am Nov 8 2:59 am
450.00 11/08/2017 09:59:28 Nov 8 04:59 am Nov 8 1:59 am
411.00 11/08/2017 08:59:44 Nov 8 03:59 am Nov 8 12:59 am
409.00 11/08/2017 04:58:40 Nov 7 11:58 pm Nov 7 8:58 pm
414.00 11/08/2017 03:58:56 Nov 7 10:58 pm Nov 7 7:58 pm
410.00 11/07/2017 19:58:56 Nov 7 02:58 pm Nov 7 11:58 am
449.00 11/07/2017 18:59:12 Nov 7 01:59 pm Nov 7 10:59 am
415.00 11/07/2017 03:58:56 Nov 6 10:58 pm Nov 6 7:58 pm
418.00 11/07/2017 01:59:28 Nov 6 08:59 pm Nov 6 5:59 pm
409.00 11/07/2017 00:59:44 Nov 6 07:59 pm Nov 6 4:59 pm
440.00 11/07/2017 00:00:00 Nov 6 07:00 pm Nov 6 4:00 pm
442.00 11/06/2017 21:58:24 Nov 6 04:58 pm Nov 6 1:58 pm
428.00 11/06/2017 20:58:40 Nov 6 03:58 pm Nov 6 12:58 pm
410.00 11/06/2017 19:58:56 Nov 6 02:58 pm Nov 6 11:58 am
425.00 11/06/2017 16:59:44 Nov 6 11:59 am Nov 6 8:59 am
416.00 11/06/2017 14:58:08 Nov 6 09:58 am Nov 6 6:58 am
425.00 11/06/2017 12:58:40 Nov 6 07:58 am Nov 6 4:58 am
434.00 11/06/2017 10:59:12 Nov 6 05:59 am Nov 6 2:59 am
455.00 11/06/2017 08:59:44 Nov 6 03:59 am Nov 6 12:59 am
411.00 11/06/2017 04:58:40 Nov 5 11:58 pm Nov 5 8:58 pm
432.00 11/06/2017 02:59:12 Nov 5 09:59 pm Nov 5 6:59 pm
451.00 11/06/2017 00:00:00 Nov 5 07:00 pm Nov 5 4:00 pm
416.00 11/05/2017 21:58:24 Nov 5 04:58 pm Nov 5 1:58 pm
410.00 11/05/2017 19:58:56 Nov 5 02:58 pm Nov 5 11:58 am
450.00 11/05/2017 18:59:12 Nov 5 01:59 pm Nov 5 10:59 am
417.00 11/05/2017 16:59:44 Nov 5 11:59 am Nov 5 8:59 am
422.00 11/05/2017 14:58:08 Nov 5 09:58 am Nov 5 6:58 am
419.00 11/05/2017 12:58:40 Nov 5 07:58 am Nov 5 4:58 am
425.00 11/05/2017 10:59:12 Nov 5 05:59 am Nov 5 2:59 am
370.00 11/05/2017 08:00:00 Nov 5 03:00 am Nov 5 1:00 am
423.00 11/05/2017 03:58:56 Nov 4 11:58 pm Nov 4 8:58 pm
379.00 11/05/2017 01:59:28 Nov 4 09:59 pm Nov 4 6:59 pm
403.00 11/05/2017 00:00:00 Nov 4 08:00 pm Nov 4 5:00 pm
399.00 11/04/2017 21:58:24 Nov 4 05:58 pm Nov 4 2:58 pm
407.00 11/04/2017 19:58:56 Nov 4 03:58 pm Nov 4 12:58 pm
400.00 11/04/2017 18:59:12 Nov 4 02:59 pm Nov 4 11:59 am
403.00 11/04/2017 17:59:28 Nov 4 01:59 pm Nov 4 10:59 am
404.00 11/04/2017 16:00:00 Nov 4 12:00 pm Nov 4 9:00 am
406.00 11/04/2017 13:58:24 Nov 4 09:58 am Nov 4 6:58 am
77.00 11/04/2017 11:58:56 Nov 4 07:58 am Nov 4 4:58 am
408.00 11/04/2017 09:59:28 Nov 4 05:59 am Nov 4 2:59 am
691.00 11/04/2017 08:00:00 Nov 4 04:00 am Nov 4 1:00 am
406.00 11/04/2017 03:58:56 Nov 3 11:58 pm Nov 3 8:58 pm
412.00 11/04/2017 01:59:28 Nov 3 09:59 pm Nov 3 6:59 pm
411.00 11/03/2017 22:58:08 Nov 3 06:58 pm Nov 3 3:58 pm
394.00 11/03/2017 20:58:40 Nov 3 04:58 pm Nov 3 1:58 pm
447.00 11/03/2017 18:59:12 Nov 3 02:59 pm Nov 3 11:59 am
417.00 11/03/2017 16:59:44 Nov 3 12:59 pm Nov 3 9:59 am
433.00 11/03/2017 14:58:08 Nov 3 10:58 am Nov 3 7:58 am
408.00 11/03/2017 12:58:40 Nov 3 08:58 am Nov 3 5:58 am
412.00 11/03/2017 10:59:12 Nov 3 06:59 am Nov 3 3:59 am
405.00 11/03/2017 08:59:44 Nov 3 04:59 am Nov 3 1:59 am
409.00 11/03/2017 06:58:08 Nov 3 02:58 am Nov 2 11:58 pm
352.00 11/03/2017 03:58:56 Nov 2 11:58 pm Nov 2 8:58 pm
371.00 11/03/2017 02:59:12 Nov 2 10:59 pm Nov 2 7:59 pm
401.00 11/03/2017 00:00:00 Nov 2 08:00 pm Nov 2 5:00 pm
402.00 11/02/2017 21:58:24 Nov 2 05:58 pm Nov 2 2:58 pm
409.00 11/02/2017 19:58:56 Nov 2 03:58 pm Nov 2 12:58 pm
410.00 11/02/2017 18:59:12 Nov 2 02:59 pm Nov 2 11:59 am
419.00 11/02/2017 17:59:28 Nov 2 01:59 pm Nov 2 10:59 am
518.00 11/02/2017 16:00:00 Nov 2 12:00 pm Nov 2 9:00 am
398.00 11/02/2017 13:58:24 Nov 2 09:58 am Nov 2 6:58 am
407.00 11/02/2017 11:58:56 Nov 2 07:58 am Nov 2 4:58 am
403.00 11/02/2017 09:59:28 Nov 2 05:59 am Nov 2 2:59 am
389.00 11/02/2017 08:00:00 Nov 2 04:00 am Nov 2 1:00 am
419.00 11/02/2017 03:58:56 Nov 1 11:58 pm Nov 1 8:58 pm
162.00 11/01/2017 22:58:08 Nov 1 06:58 pm Nov 1 3:58 pm
521.00 11/01/2017 20:58:40 Nov 1 04:58 pm Nov 1 1:58 pm
524.00 11/01/2017 18:59:12 Nov 1 02:59 pm Nov 1 11:59 am
613.00 11/01/2017 16:00:00 Nov 1 12:00 pm Nov 1 9:00 am
543.00 11/01/2017 14:58:08 Nov 1 10:58 am Nov 1 7:58 am
535.00 11/01/2017 09:59:28 Nov 1 05:59 am Nov 1 2:59 am
659.00 11/01/2017 08:00:00 Nov 1 04:00 am Nov 1 1:00 am
541.00 11/01/2017 03:58:56 Oct 31 11:58 pm Oct 31 8:58 pm
555.00 11/01/2017 01:59:28 Oct 31 09:59 pm Oct 31 6:59 pm
199.00 11/01/2017 00:00:00 Oct 31 08:00 pm Oct 31 5:00 pm
540.00 10/31/2017 21:58:24 Oct 31 05:58 pm Oct 31 2:58 pm
548.00 10/31/2017 19:58:56 Oct 31 03:58 pm Oct 31 12:58 pm
575.00 10/31/2017 18:59:12 Oct 31 02:59 pm Oct 31 11:59 am

Status

Gauge History

Times listed in GMT 24h, ET and PT hours provided for convenience Graphs in GMT. Readings of "n/a" constitute a frozen gauge or gauge error.
Reading Updated (GMT) Eastern Pacific Comment
too low 11/19/2017 19:58:56 Nov 19 02:58 pm Nov 19 11:58 am
too low 11/19/2017 18:59:12 Nov 19 01:59 pm Nov 19 10:59 am
too low 11/19/2017 17:59:28 Nov 19 12:59 pm Nov 19 9:59 am
too low 11/19/2017 16:59:44 Nov 19 11:59 am Nov 19 8:59 am
too low 11/19/2017 16:00:00 Nov 19 11:00 am Nov 19 8:00 am
too low 11/19/2017 14:58:08 Nov 19 09:58 am Nov 19 6:58 am
too low 11/19/2017 13:58:24 Nov 19 08:58 am Nov 19 5:58 am
too low 11/19/2017 12:58:40 Nov 19 07:58 am Nov 19 4:58 am
too low 11/19/2017 11:58:56 Nov 19 06:58 am Nov 19 3:58 am
too low 11/19/2017 09:59:28 Nov 19 04:59 am Nov 19 1:59 am
too low 11/19/2017 08:59:44 Nov 19 03:59 am Nov 19 12:59 am
too low 11/19/2017 08:00:00 Nov 19 03:00 am Nov 19 12:00 am
too low 11/19/2017 04:58:40 Nov 18 11:58 pm Nov 18 8:58 pm
too low 11/19/2017 03:58:56 Nov 18 10:58 pm Nov 18 7:58 pm
running 11/19/2017 02:59:12 Nov 18 09:59 pm Nov 18 6:59 pm
running 11/19/2017 00:59:44 Nov 18 07:59 pm Nov 18 4:59 pm
running 11/18/2017 22:58:08 Nov 18 05:58 pm Nov 18 2:58 pm
running 11/18/2017 21:58:24 Nov 18 04:58 pm Nov 18 1:58 pm
running 11/18/2017 20:58:40 Nov 18 03:58 pm Nov 18 12:58 pm
running 11/18/2017 19:58:56 Nov 18 02:58 pm Nov 18 11:58 am
running 11/18/2017 18:59:12 Nov 18 01:59 pm Nov 18 10:59 am
running 11/18/2017 17:59:28 Nov 18 12:59 pm Nov 18 9:59 am
running 11/18/2017 16:59:44 Nov 18 11:59 am Nov 18 8:59 am
running 11/18/2017 16:00:00 Nov 18 11:00 am Nov 18 8:00 am
running 11/18/2017 14:58:08 Nov 18 09:58 am Nov 18 6:58 am
running 11/18/2017 13:58:24 Nov 18 08:58 am Nov 18 5:58 am
running 11/18/2017 12:58:40 Nov 18 07:58 am Nov 18 4:58 am
running 11/18/2017 03:58:56 Nov 17 10:58 pm Nov 17 7:58 pm
running 11/18/2017 01:59:28 Nov 17 08:59 pm Nov 17 5:59 pm
running 11/18/2017 00:00:00 Nov 17 07:00 pm Nov 17 4:00 pm
running 11/17/2017 22:58:08 Nov 17 05:58 pm Nov 17 2:58 pm
running 11/17/2017 21:58:24 Nov 17 04:58 pm Nov 17 1:58 pm
running 11/17/2017 20:58:40 Nov 17 03:58 pm Nov 17 12:58 pm
running 11/17/2017 19:58:56 Nov 17 02:58 pm Nov 17 11:58 am
running 11/17/2017 18:59:12 Nov 17 01:59 pm Nov 17 10:59 am
running 11/17/2017 17:59:28 Nov 17 12:59 pm Nov 17 9:59 am
running 11/17/2017 16:59:44 Nov 17 11:59 am Nov 17 8:59 am
running 11/17/2017 16:00:00 Nov 17 11:00 am Nov 17 8:00 am
running 11/17/2017 14:58:08 Nov 17 09:58 am Nov 17 6:58 am
running 11/17/2017 13:58:24 Nov 17 08:58 am Nov 17 5:58 am
running 11/17/2017 12:58:40 Nov 17 07:58 am Nov 17 4:58 am
running 11/17/2017 11:58:56 Nov 17 06:58 am Nov 17 3:58 am
running 11/17/2017 10:59:12 Nov 17 05:59 am Nov 17 2:59 am
running 11/17/2017 09:59:28 Nov 17 04:59 am Nov 17 1:59 am
running 11/17/2017 08:59:44 Nov 17 03:59 am Nov 17 12:59 am
running 11/17/2017 02:59:12 Nov 16 09:59 pm Nov 16 6:59 pm
running 11/17/2017 01:59:28 Nov 16 08:59 pm Nov 16 5:59 pm
too low 11/16/2017 22:58:08 Nov 16 05:58 pm Nov 16 2:58 pm
too low 11/16/2017 21:58:24 Nov 16 04:58 pm Nov 16 1:58 pm
too low 11/16/2017 20:58:40 Nov 16 03:58 pm Nov 16 12:58 pm
too low 11/16/2017 19:58:56 Nov 16 02:58 pm Nov 16 11:58 am
too low 11/16/2017 18:59:12 Nov 16 01:59 pm Nov 16 10:59 am
too low 11/16/2017 17:59:28 Nov 16 12:59 pm Nov 16 9:59 am
too low 11/16/2017 16:59:44 Nov 16 11:59 am Nov 16 8:59 am
running 11/16/2017 16:00:00 Nov 16 11:00 am Nov 16 8:00 am
running 11/16/2017 14:58:08 Nov 16 09:58 am Nov 16 6:58 am
running 11/16/2017 13:58:24 Nov 16 08:58 am Nov 16 5:58 am
running 11/16/2017 12:58:40 Nov 16 07:58 am Nov 16 4:58 am
running 11/16/2017 11:58:56 Nov 16 06:58 am Nov 16 3:58 am
running 11/16/2017 10:59:12 Nov 16 05:59 am Nov 16 2:59 am
too low 11/16/2017 08:59:44 Nov 16 03:59 am Nov 16 12:59 am
too low 11/16/2017 08:00:00 Nov 16 03:00 am Nov 16 12:00 am
too low 11/16/2017 04:58:40 Nov 15 11:58 pm Nov 15 8:58 pm
too low 11/16/2017 03:58:56 Nov 15 10:58 pm Nov 15 7:58 pm
too low 11/16/2017 02:59:12 Nov 15 09:59 pm Nov 15 6:59 pm
too low 11/16/2017 01:59:28 Nov 15 08:59 pm Nov 15 5:59 pm
too low 11/16/2017 00:00:00 Nov 15 07:00 pm Nov 15 4:00 pm
too low 11/15/2017 22:58:08 Nov 15 05:58 pm Nov 15 2:58 pm
too low 11/15/2017 21:58:24 Nov 15 04:58 pm Nov 15 1:58 pm
too low 11/15/2017 20:58:40 Nov 15 03:58 pm Nov 15 12:58 pm
too low 11/15/2017 19:58:56 Nov 15 02:58 pm Nov 15 11:58 am
too low 11/15/2017 18:59:12 Nov 15 01:59 pm Nov 15 10:59 am
too low 11/15/2017 17:59:28 Nov 15 12:59 pm Nov 15 9:59 am
too low 11/15/2017 16:59:44 Nov 15 11:59 am Nov 15 8:59 am
too low 11/15/2017 16:00:00 Nov 15 11:00 am Nov 15 8:00 am
too low 11/15/2017 14:58:08 Nov 15 09:58 am Nov 15 6:58 am
too low 11/15/2017 13:58:24 Nov 15 08:58 am Nov 15 5:58 am
too low 11/15/2017 12:58:40 Nov 15 07:58 am Nov 15 4:58 am
too low 11/15/2017 10:59:12 Nov 15 05:59 am Nov 15 2:59 am
too low 11/15/2017 08:59:44 Nov 15 03:59 am Nov 15 12:59 am
too low 11/15/2017 04:58:40 Nov 14 11:58 pm Nov 14 8:58 pm
too low 11/15/2017 02:59:12 Nov 14 09:59 pm Nov 14 6:59 pm
too low 11/15/2017 01:59:28 Nov 14 08:59 pm Nov 14 5:59 pm
too low 11/15/2017 00:00:00 Nov 14 07:00 pm Nov 14 4:00 pm
too low 11/14/2017 22:58:08 Nov 14 05:58 pm Nov 14 2:58 pm
too low 11/14/2017 21:58:24 Nov 14 04:58 pm Nov 14 1:58 pm
too low 11/14/2017 20:58:40 Nov 14 03:58 pm Nov 14 12:58 pm
too low 11/14/2017 19:58:56 Nov 14 02:58 pm Nov 14 11:58 am
too low 11/14/2017 18:59:12 Nov 14 01:59 pm Nov 14 10:59 am
too low 11/14/2017 17:59:28 Nov 14 12:59 pm Nov 14 9:59 am
too low 11/14/2017 16:59:44 Nov 14 11:59 am Nov 14 8:59 am
too low 11/14/2017 16:00:00 Nov 14 11:00 am Nov 14 8:00 am
too low 11/14/2017 14:58:08 Nov 14 09:58 am Nov 14 6:58 am
too low 11/14/2017 13:58:24 Nov 14 08:58 am Nov 14 5:58 am
too low 11/14/2017 12:58:40 Nov 14 07:58 am Nov 14 4:58 am
too low 11/14/2017 11:58:56 Nov 14 06:58 am Nov 14 3:58 am
too low 11/14/2017 10:59:12 Nov 14 05:59 am Nov 14 2:59 am
too low 11/14/2017 08:59:44 Nov 14 03:59 am Nov 14 12:59 am
too low 11/14/2017 08:00:00 Nov 14 03:00 am Nov 14 12:00 am
too low 11/14/2017 04:58:40 Nov 13 11:58 pm Nov 13 8:58 pm
too low 11/14/2017 03:58:56 Nov 13 10:58 pm Nov 13 7:58 pm
too low 11/14/2017 02:59:12 Nov 13 09:59 pm Nov 13 6:59 pm
too low 11/14/2017 01:59:28 Nov 13 08:59 pm Nov 13 5:59 pm
too low 11/14/2017 00:00:00 Nov 13 07:00 pm Nov 13 4:00 pm
too low 11/13/2017 22:58:08 Nov 13 05:58 pm Nov 13 2:58 pm
too low 11/13/2017 21:58:24 Nov 13 04:58 pm Nov 13 1:58 pm
too low 11/13/2017 20:58:40 Nov 13 03:58 pm Nov 13 12:58 pm
too low 11/13/2017 19:58:56 Nov 13 02:58 pm Nov 13 11:58 am
too low 11/13/2017 17:59:28 Nov 13 12:59 pm Nov 13 9:59 am
too low 11/13/2017 16:59:44 Nov 13 11:59 am Nov 13 8:59 am
too low 11/13/2017 16:00:00 Nov 13 11:00 am Nov 13 8:00 am
too low 11/13/2017 14:58:08 Nov 13 09:58 am Nov 13 6:58 am
too low 11/13/2017 13:58:24 Nov 13 08:58 am Nov 13 5:58 am
too low 11/13/2017 12:58:40 Nov 13 07:58 am Nov 13 4:58 am
too low 11/13/2017 11:58:56 Nov 13 06:58 am Nov 13 3:58 am
too low 11/13/2017 09:59:28 Nov 13 04:59 am Nov 13 1:59 am
too low 11/13/2017 08:59:44 Nov 13 03:59 am Nov 13 12:59 am
too low 11/13/2017 08:00:00 Nov 13 03:00 am Nov 13 12:00 am
too low 11/13/2017 04:58:40 Nov 12 11:58 pm Nov 12 8:58 pm
too low 11/13/2017 03:58:56 Nov 12 10:58 pm Nov 12 7:58 pm
too low 11/13/2017 02:59:12 Nov 12 09:59 pm Nov 12 6:59 pm
too low 11/13/2017 01:59:28 Nov 12 08:59 pm Nov 12 5:59 pm
too low 11/13/2017 00:00:00 Nov 12 07:00 pm Nov 12 4:00 pm
too low 11/12/2017 22:58:08 Nov 12 05:58 pm Nov 12 2:58 pm
too low 11/12/2017 21:58:24 Nov 12 04:58 pm Nov 12 1:58 pm
too low 11/12/2017 20:58:40 Nov 12 03:58 pm Nov 12 12:58 pm
too low 11/12/2017 19:58:56 Nov 12 02:58 pm Nov 12 11:58 am
too low 11/12/2017 16:59:44 Nov 12 11:59 am Nov 12 8:59 am
too low 11/12/2017 16:00:00 Nov 12 11:00 am Nov 12 8:00 am
too low 11/12/2017 14:58:08 Nov 12 09:58 am Nov 12 6:58 am
too low 11/12/2017 13:58:24 Nov 12 08:58 am Nov 12 5:58 am
too low 11/12/2017 12:58:40 Nov 12 07:58 am Nov 12 4:58 am
too low 11/12/2017 11:58:56 Nov 12 06:58 am Nov 12 3:58 am
too low 11/12/2017 08:59:44 Nov 12 03:59 am Nov 12 12:59 am
too low 11/12/2017 04:58:40 Nov 11 11:58 pm Nov 11 8:58 pm
too low 11/12/2017 03:58:56 Nov 11 10:58 pm Nov 11 7:58 pm
too low 11/12/2017 02:59:12 Nov 11 09:59 pm Nov 11 6:59 pm
too low 11/12/2017 00:59:44 Nov 11 07:59 pm Nov 11 4:59 pm
too low 11/12/2017 00:00:00 Nov 11 07:00 pm Nov 11 4:00 pm
too low 11/11/2017 22:58:08 Nov 11 05:58 pm Nov 11 2:58 pm
too low 11/11/2017 21:58:24 Nov 11 04:58 pm Nov 11 1:58 pm
too low 11/11/2017 20:58:40 Nov 11 03:58 pm Nov 11 12:58 pm
too low 11/11/2017 19:58:56 Nov 11 02:58 pm Nov 11 11:58 am
too low 11/11/2017 18:59:12 Nov 11 01:59 pm Nov 11 10:59 am
too low 11/11/2017 17:59:28 Nov 11 12:59 pm Nov 11 9:59 am
too low 11/11/2017 16:59:44 Nov 11 11:59 am Nov 11 8:59 am
too low 11/11/2017 16:00:00 Nov 11 11:00 am Nov 11 8:00 am
too low 11/11/2017 14:58:08 Nov 11 09:58 am Nov 11 6:58 am
too low 11/11/2017 13:58:24 Nov 11 08:58 am Nov 11 5:58 am
too low 11/11/2017 12:58:40 Nov 11 07:58 am Nov 11 4:58 am
too low 11/11/2017 11:58:56 Nov 11 06:58 am Nov 11 3:58 am
too low 11/11/2017 10:59:12 Nov 11 05:59 am Nov 11 2:59 am
too low 11/11/2017 09:59:28 Nov 11 04:59 am Nov 11 1:59 am
too low 11/11/2017 08:59:44 Nov 11 03:59 am Nov 11 12:59 am
too low 11/11/2017 04:58:40 Nov 10 11:58 pm Nov 10 8:58 pm
too low 11/11/2017 03:58:56 Nov 10 10:58 pm Nov 10 7:58 pm
too low 11/11/2017 02:59:12 Nov 10 09:59 pm Nov 10 6:59 pm
too low 11/11/2017 01:59:28 Nov 10 08:59 pm Nov 10 5:59 pm
too low 11/11/2017 00:59:44 Nov 10 07:59 pm Nov 10 4:59 pm
too low 11/10/2017 22:58:08 Nov 10 05:58 pm Nov 10 2:58 pm
too low 11/10/2017 21:58:24 Nov 10 04:58 pm Nov 10 1:58 pm
too low 11/10/2017 20:58:40 Nov 10 03:58 pm Nov 10 12:58 pm
too low 11/10/2017 19:58:56 Nov 10 02:58 pm Nov 10 11:58 am
too low 11/10/2017 18:59:12 Nov 10 01:59 pm Nov 10 10:59 am
too low 11/10/2017 17:59:28 Nov 10 12:59 pm Nov 10 9:59 am
too low 11/10/2017 16:59:44 Nov 10 11:59 am Nov 10 8:59 am
too low 11/10/2017 16:00:00 Nov 10 11:00 am Nov 10 8:00 am
too low 11/10/2017 14:58:08 Nov 10 09:58 am Nov 10 6:58 am
too low 11/10/2017 13:58:24 Nov 10 08:58 am Nov 10 5:58 am
too low 11/10/2017 12:58:40 Nov 10 07:58 am Nov 10 4:58 am
too low 11/10/2017 11:58:56 Nov 10 06:58 am Nov 10 3:58 am
too low 11/10/2017 10:59:12 Nov 10 05:59 am Nov 10 2:59 am
too low 11/10/2017 09:59:28 Nov 10 04:59 am Nov 10 1:59 am
too low 11/10/2017 08:59:44 Nov 10 03:59 am Nov 10 12:59 am
too low 11/10/2017 04:58:40 Nov 9 11:58 pm Nov 9 8:58 pm
too low 11/10/2017 03:58:56 Nov 9 10:58 pm Nov 9 7:58 pm
too low 11/10/2017 02:59:12 Nov 9 09:59 pm Nov 9 6:59 pm
too low 11/10/2017 01:59:28 Nov 9 08:59 pm Nov 9 5:59 pm
too low 11/10/2017 00:59:44 Nov 9 07:59 pm Nov 9 4:59 pm
too low 11/09/2017 22:58:08 Nov 9 05:58 pm Nov 9 2:58 pm
too low 11/09/2017 21:58:24 Nov 9 04:58 pm Nov 9 1:58 pm
too low 11/09/2017 20:58:40 Nov 9 03:58 pm Nov 9 12:58 pm
too low 11/09/2017 19:58:56 Nov 9 02:58 pm Nov 9 11:58 am
too low 11/09/2017 18:59:12 Nov 9 01:59 pm Nov 9 10:59 am
too low 11/09/2017 17:59:28 Nov 9 12:59 pm Nov 9 9:59 am
too low 11/09/2017 16:59:44 Nov 9 11:59 am Nov 9 8:59 am
too low 11/09/2017 16:00:00 Nov 9 11:00 am Nov 9 8:00 am
too low 11/09/2017 14:58:08 Nov 9 09:58 am Nov 9 6:58 am
too low 11/09/2017 13:58:24 Nov 9 08:58 am Nov 9 5:58 am
too low 11/09/2017 12:58:40 Nov 9 07:58 am Nov 9 4:58 am
too low 11/09/2017 11:58:56 Nov 9 06:58 am Nov 9 3:58 am
too low 11/09/2017 10:59:12 Nov 9 05:59 am Nov 9 2:59 am
too low 11/09/2017 09:59:28 Nov 9 04:59 am Nov 9 1:59 am
too low 11/09/2017 08:00:00 Nov 9 03:00 am Nov 9 12:00 am
too low 11/09/2017 04:58:40 Nov 8 11:58 pm Nov 8 8:58 pm
too low 11/09/2017 03:58:56 Nov 8 10:58 pm Nov 8 7:58 pm
too low 11/09/2017 02:59:12 Nov 8 09:59 pm Nov 8 6:59 pm
too low 11/09/2017 00:59:44 Nov 8 07:59 pm Nov 8 4:59 pm
too low 11/08/2017 22:58:08 Nov 8 05:58 pm Nov 8 2:58 pm
too low 11/08/2017 21:58:24 Nov 8 04:58 pm Nov 8 1:58 pm
too low 11/08/2017 20:58:40 Nov 8 03:58 pm Nov 8 12:58 pm
too low 11/08/2017 19:58:56 Nov 8 02:58 pm Nov 8 11:58 am
too low 11/08/2017 18:59:12 Nov 8 01:59 pm Nov 8 10:59 am
too low 11/08/2017 17:59:28 Nov 8 12:59 pm Nov 8 9:59 am
too low 11/08/2017 16:59:44 Nov 8 11:59 am Nov 8 8:59 am
too low 11/08/2017 16:00:00 Nov 8 11:00 am Nov 8 8:00 am
too low 11/08/2017 14:58:08 Nov 8 09:58 am Nov 8 6:58 am
too low 11/08/2017 13:58:24 Nov 8 08:58 am Nov 8 5:58 am
too low 11/08/2017 12:58:40 Nov 8 07:58 am Nov 8 4:58 am
too low 11/08/2017 11:58:56 Nov 8 06:58 am Nov 8 3:58 am
too low 11/08/2017 10:59:12 Nov 8 05:59 am Nov 8 2:59 am
too low 11/08/2017 09:59:28 Nov 8 04:59 am Nov 8 1:59 am
too low 11/08/2017 08:59:44 Nov 8 03:59 am Nov 8 12:59 am
too low 11/08/2017 04:58:40 Nov 7 11:58 pm Nov 7 8:58 pm
too low 11/08/2017 03:58:56 Nov 7 10:58 pm Nov 7 7:58 pm
too low 11/07/2017 19:58:56 Nov 7 02:58 pm Nov 7 11:58 am
too low 11/07/2017 18:59:12 Nov 7 01:59 pm Nov 7 10:59 am
too low 11/07/2017 03:58:56 Nov 6 10:58 pm Nov 6 7:58 pm
too low 11/07/2017 01:59:28 Nov 6 08:59 pm Nov 6 5:59 pm
too low 11/07/2017 00:59:44 Nov 6 07:59 pm Nov 6 4:59 pm
too low 11/06/2017 21:58:24 Nov 6 04:58 pm Nov 6 1:58 pm
too low 11/06/2017 20:58:40 Nov 6 03:58 pm Nov 6 12:58 pm
too low 11/06/2017 19:58:56 Nov 6 02:58 pm Nov 6 11:58 am
too low 11/06/2017 16:59:44 Nov 6 11:59 am Nov 6 8:59 am
too low 11/06/2017 14:58:08 Nov 6 09:58 am Nov 6 6:58 am
too low 11/06/2017 12:58:40 Nov 6 07:58 am Nov 6 4:58 am
too low 11/06/2017 10:59:12 Nov 6 05:59 am Nov 6 2:59 am
too low 11/06/2017 08:59:44 Nov 6 03:59 am Nov 6 12:59 am
too low 11/06/2017 04:58:40 Nov 5 11:58 pm Nov 5 8:58 pm
too low 11/06/2017 02:59:12 Nov 5 09:59 pm Nov 5 6:59 pm
too low 11/06/2017 00:00:00 Nov 5 07:00 pm Nov 5 4:00 pm
too low 11/05/2017 21:58:24 Nov 5 04:58 pm Nov 5 1:58 pm
too low 11/05/2017 18:59:12 Nov 5 01:59 pm Nov 5 10:59 am
too low 11/05/2017 16:59:44 Nov 5 11:59 am Nov 5 8:59 am
too low 11/05/2017 14:58:08 Nov 5 09:58 am Nov 5 6:58 am
too low 11/05/2017 12:58:40 Nov 5 07:58 am Nov 5 4:58 am
too low 11/05/2017 10:59:12 Nov 5 05:59 am Nov 5 2:59 am
too low 11/05/2017 08:00:00 Nov 5 03:00 am Nov 5 1:00 am
too low 11/05/2017 01:59:28 Nov 4 09:59 pm Nov 4 6:59 pm
too low 11/04/2017 21:58:24 Nov 4 05:58 pm Nov 4 2:58 pm
too low 11/04/2017 19:58:56 Nov 4 03:58 pm Nov 4 12:58 pm
too low 11/04/2017 17:59:28 Nov 4 01:59 pm Nov 4 10:59 am
too low 11/04/2017 16:00:00 Nov 4 12:00 pm Nov 4 9:00 am
too low 11/04/2017 13:58:24 Nov 4 09:58 am Nov 4 6:58 am
too low 11/04/2017 11:58:56 Nov 4 07:58 am Nov 4 4:58 am
too low 11/04/2017 09:59:28 Nov 4 05:59 am Nov 4 2:59 am
running 11/04/2017 08:00:00 Nov 4 04:00 am Nov 4 1:00 am
too low 11/04/2017 03:58:56 Nov 3 11:58 pm Nov 3 8:58 pm
too low 11/04/2017 01:59:28 Nov 3 09:59 pm Nov 3 6:59 pm
too low 11/03/2017 22:58:08 Nov 3 06:58 pm Nov 3 3:58 pm
too low 11/03/2017 20:58:40 Nov 3 04:58 pm Nov 3 1:58 pm
too low 11/03/2017 18:59:12 Nov 3 02:59 pm Nov 3 11:59 am
too low 11/03/2017 16:59:44 Nov 3 12:59 pm Nov 3 9:59 am
too low 11/03/2017 14:58:08 Nov 3 10:58 am Nov 3 7:58 am
too low 11/03/2017 12:58:40 Nov 3 08:58 am Nov 3 5:58 am
too low 11/03/2017 10:59:12 Nov 3 06:59 am Nov 3 3:59 am
too low 11/03/2017 08:59:44 Nov 3 04:59 am Nov 3 1:59 am
too low 11/03/2017 06:58:08 Nov 3 02:58 am Nov 2 11:58 pm
too low 11/03/2017 02:59:12 Nov 2 10:59 pm Nov 2 7:59 pm
too low 11/03/2017 00:00:00 Nov 2 08:00 pm Nov 2 5:00 pm
too low 11/02/2017 21:58:24 Nov 2 05:58 pm Nov 2 2:58 pm
too low 11/02/2017 19:58:56 Nov 2 03:58 pm Nov 2 12:58 pm
too low 11/02/2017 17:59:28 Nov 2 01:59 pm Nov 2 10:59 am
too low 11/02/2017 16:00:00 Nov 2 12:00 pm Nov 2 9:00 am
too low 11/02/2017 13:58:24 Nov 2 09:58 am Nov 2 6:58 am
too low 11/02/2017 11:58:56 Nov 2 07:58 am Nov 2 4:58 am
too low 11/02/2017 09:59:28 Nov 2 05:59 am Nov 2 2:59 am
too low 11/02/2017 08:00:00 Nov 2 04:00 am Nov 2 1:00 am
too low 11/02/2017 03:58:56 Nov 1 11:58 pm Nov 1 8:58 pm
too low 11/01/2017 22:58:08 Nov 1 06:58 pm Nov 1 3:58 pm
too low 11/01/2017 20:58:40 Nov 1 04:58 pm Nov 1 1:58 pm
too low 11/01/2017 18:59:12 Nov 1 02:59 pm Nov 1 11:59 am
running 11/01/2017 16:00:00 Nov 1 12:00 pm Nov 1 9:00 am
too low 11/01/2017 14:58:08 Nov 1 10:58 am Nov 1 7:58 am
too low 11/01/2017 09:59:28 Nov 1 05:59 am Nov 1 2:59 am
running 11/01/2017 08:00:00 Nov 1 04:00 am Nov 1 1:00 am
too low 11/01/2017 03:58:56 Oct 31 11:58 pm Oct 31 8:58 pm
too low 11/01/2017 01:59:28 Oct 31 09:59 pm Oct 31 6:59 pm
too low 11/01/2017 00:00:00 Oct 31 08:00 pm Oct 31 5:00 pm
too low 10/31/2017 21:58:24 Oct 31 05:58 pm Oct 31 2:58 pm
too low 10/31/2017 19:58:56 Oct 31 03:58 pm Oct 31 12:58 pm
too low 10/31/2017 18:59:12 Oct 31 02:59 pm Oct 31 11:59 am
too low 10/31/2017 17:59:28 Oct 31 01:59 pm Oct 31 10:59 am
too low 10/31/2017 16:00:00 Oct 31 12:00 pm Oct 31 9:00 am
too low 10/31/2017 14:58:08 Oct 31 10:58 am Oct 31 7:58 am
too low 10/31/2017 12:58:40 Oct 31 08:58 am Oct 31 5:58 am
too low 10/31/2017 10:59:12 Oct 31 06:59 am Oct 31 3:59 am
too low 10/31/2017 08:59:44 Oct 31 04:59 am Oct 31 1:59 am
running 10/31/2017 06:58:08 Oct 31 02:58 am Oct 30 11:58 pm
too low 10/31/2017 02:59:12 Oct 30 10:59 pm Oct 30 7:59 pm
too low 10/31/2017 00:59:44 Oct 30 08:59 pm Oct 30 5:59 pm
too low 10/30/2017 22:58:08 Oct 30 06:58 pm Oct 30 3:58 pm
too low 10/30/2017 20:58:40 Oct 30 04:58 pm Oct 30 1:58 pm
too low 10/30/2017 18:59:12 Oct 30 02:59 pm Oct 30 11:59 am
running 10/30/2017 16:00:00 Oct 30 12:00 pm Oct 30 9:00 am
too low 10/30/2017 13:58:24 Oct 30 09:58 am Oct 30 6:58 am
too low 10/26/2017 20:58:40 Oct 26 04:58 pm Oct 26 1:58 pm
too low 10/26/2017 18:59:12 Oct 26 02:59 pm Oct 26 11:59 am
too low 10/26/2017 16:59:44 Oct 26 12:59 pm Oct 26 9:59 am
running 10/26/2017 14:58:08 Oct 26 10:58 am Oct 26 7:58 am

Report - Reports of Related Gauges

Reports give the public a chance to report on river conditions throughout the country as well as log the history of a river.

Reports

No Reports Filed

Linked Reaches

Click a heading to sort. Hover over a heading for help.
River Name/Section Class Level running? Updated
Pit [CA] 2) Pit 1: Fall River Mills to Pit River Campground (Pit Fall... III-IV ~ 592 cfs
+ 43 cfs/hr
L9-
Below Recom.
03h46m